PGT10BU LTBS-LTFJ

Flight info

Callsign PGT10BU
Flight time 1h 21m
Altitude 36000
Route RIVBU DCT BAGLU DCT ATGIT UT30 SIVKU/N0454F380 UL610 ETAMP
Aircraft A320/M-SDE3FGHIRWY/LB1

Departure

Time 2026-04-10 12:26
Airport Dalaman International Airport (LTBS)

Arrival

Time 2026-04-10 13:47
Airport Istanbul Sabiha Gökçen International Airport (LTFJ)
Time Latitude Longitude Altitude Speed Heading
2026-04-10 12:14 36.71998 28.78975 12 ft 0 kts 283°
2026-04-10 12:19 36.71997 28.78981 12 ft 2 kts 283°
2026-04-10 12:19 36.71992 28.79004 13 ft 3 kts 294°
2026-04-10 12:19 36.71982 28.79025 15 ft 3 kts 316°
2026-04-10 12:20 36.71968 28.79037 14 ft 2 kts
2026-04-10 12:20 36.71961 28.79037 13 ft 0 kts 16°
2026-04-10 12:21 36.71966 28.79038 14 ft 4 kts 16°
2026-04-10 12:22 36.72052 28.79068 12 ft 15 kts 15°
2026-04-10 12:22 36.72154 28.79103 12 ft 15 kts 15°
2026-04-10 12:22 36.72255 28.79137 12 ft 15 kts 15°
2026-04-10 12:22 36.72310 28.79204 12 ft 11 kts 95°
2026-04-10 12:23 36.72283 28.79295 14 ft 11 kts 108°
2026-04-10 12:23 36.72294 28.79371 14 ft 9 kts 34°
2026-04-10 12:23 36.72359 28.79395 12 ft 12 kts 14°
2026-04-10 12:23 36.72445 28.79423 12 ft 13 kts 15°
2026-04-10 12:24 36.72532 28.79453 12 ft 13 kts 15°
2026-04-10 12:24 36.72613 28.79479 12 ft 10 kts 15°
2026-04-10 12:24 36.72648 28.79546 12 ft 10 kts 96°
2026-04-10 12:24 36.72629 28.79631 13 ft 10 kts 106°
2026-04-10 12:25 36.72593 28.79684 12 ft 8 kts 176°
2026-04-10 12:25 36.72579 28.79681 12 ft 1 kts 192°
2026-04-10 12:25 36.72366 28.79610 12 ft 77 kts 195°
2026-04-10 12:25 36.71579 28.79341 13 ft 151 kts 195°
2026-04-10 12:26 36.70454 28.78989 508 ft 176 kts 196°
2026-04-10 12:26 36.69201 28.78607 1264 ft 196 kts 198°
2026-04-10 12:26 36.67793 28.78166 1984 ft 226 kts 198°
2026-04-10 12:26 36.66187 28.77641 2778 ft 250 kts 199°
2026-04-10 12:27 36.64461 28.77020 3815 ft 264 kts 200°
2026-04-10 12:27 36.62668 28.76368 5008 ft 273 kts 199°
2026-04-10 12:27 36.60819 28.75707 6223 ft 280 kts 199°
2026-04-10 12:27 36.58918 28.75089 7413 ft 286 kts 192°
2026-04-10 12:28 36.56908 28.75312 8563 ft 300 kts 161°
2026-04-10 12:28 36.55197 28.76813 9737 ft 309 kts 129°
2026-04-10 12:28 36.54199 28.79226 10562 ft 326 kts 108°
2026-04-10 12:28 36.53511 28.81982 11377 ft 339 kts 104°
2026-04-10 12:29 36.52909 28.84855 12363 ft 347 kts 103°
2026-04-10 12:29 36.52344 28.87809 13347 ft 355 kts 99°
2026-04-10 12:29 36.52307 28.90880 14232 ft 358 kts 77°
2026-04-10 12:29 36.53109 28.93793 15105 ft 356 kts 56°
2026-04-10 12:30 36.54624 28.96244 15643 ft 363 kts 36°
2026-04-10 12:30 36.56766 28.97854 16340 ft 360 kts 14°
2026-04-10 12:30 36.59168 28.98725 17195 ft 361 kts
2026-04-10 12:30 36.61611 28.99551 18088 ft 366 kts
2026-04-10 12:31 36.64080 29.00388 18882 ft 370 kts
2026-04-10 12:31 36.66577 29.01244 19633 ft 375 kts
2026-04-10 12:31 36.69104 29.02115 20373 ft 379 kts
2026-04-10 12:31 36.71666 29.02999 21112 ft 384 kts
2026-04-10 12:32 36.74253 29.03892 21834 ft 388 kts
2026-04-10 12:32 36.76874 29.04795 22549 ft 393 kts
2026-04-10 12:32 36.79523 29.05709 23252 ft 397 kts
2026-04-10 12:32 36.82204 29.06637 23878 ft 402 kts
2026-04-10 12:33 36.84912 29.07575 24479 ft 406 kts
2026-04-10 12:33 36.87640 29.08520 25063 ft 409 kts
2026-04-10 12:33 36.90396 29.09475 25640 ft 412 kts
2026-04-10 12:33 36.93168 29.10434 26240 ft 415 kts
2026-04-10 12:34 36.95953 29.11445 26794 ft 421 kts 13°
2026-04-10 12:34 36.98690 29.12852 27331 ft 428 kts 17°
2026-04-10 12:34 37.01433 29.14327 27855 ft 431 kts 17°
2026-04-10 12:34 37.04201 29.15822 28390 ft 434 kts 17°
2026-04-10 12:35 37.06985 29.17325 28921 ft 438 kts 17°
2026-04-10 12:35 37.09793 29.18838 29449 ft 441 kts 16°
2026-04-10 12:35 37.12620 29.20361 29965 ft 444 kts 17°
2026-04-10 12:35 37.15473 29.21899 30413 ft 447 kts 17°
2026-04-10 12:36 37.18338 29.23446 30849 ft 450 kts 17°
2026-04-10 12:36 37.21220 29.25008 31288 ft 452 kts 16°
2026-04-10 12:36 37.24062 29.26553 31853 ft 450 kts 16°
2026-04-10 12:36 37.26964 29.28136 32452 ft 448 kts 16°
2026-04-10 12:37 37.29787 29.29638 33052 ft 443 kts 13°
2026-04-10 12:37 37.32745 29.30734 33658 ft 432 kts
2026-04-10 12:37 37.35685 29.31262 34219 ft 423 kts 356°
2026-04-10 12:37 37.38565 29.31356 34692 ft 419 kts 353°
2026-04-10 12:38 37.41474 29.31398 35142 ft 418 kts 354°
2026-04-10 12:38 37.44381 29.31446 35572 ft 418 kts 354°
2026-04-10 12:38 37.47296 29.31496 35925 ft 419 kts 354°
2026-04-10 12:39 37.53113 29.31600 36017 ft 417 kts 354°
2026-04-10 12:39 37.58899 29.31710 36028 ft 416 kts 354°
2026-04-10 12:40 37.64679 29.31806 36024 ft 415 kts 354°
2026-04-10 12:40 37.70441 29.31898 36027 ft 414 kts 354°
2026-04-10 12:41 37.76204 29.31999 36034 ft 414 kts 354°
2026-04-10 12:41 37.81960 29.32098 36038 ft 414 kts 354°
2026-04-10 12:42 37.87711 29.32193 36038 ft 413 kts 354°
2026-04-10 12:42 37.93461 29.32293 36043 ft 413 kts 354°
2026-04-10 12:43 37.99198 29.32412 36044 ft 414 kts 356°
2026-04-10 12:43 38.02074 29.33041 36041 ft 426 kts
2026-04-10 12:43 38.04837 29.34539 36041 ft 440 kts 22°
2026-04-10 12:43 38.07312 29.36920 36038 ft 455 kts 37°
2026-04-10 12:44 38.09295 29.40113 36033 ft 469 kts 53°
2026-04-10 12:44 38.11873 29.47849 36025 ft 478 kts 63°
2026-04-10 12:45 38.14285 29.55732 36008 ft 479 kts 63°
2026-04-10 12:45 38.16730 29.63618 36009 ft 477 kts 59°
2026-04-10 12:45 38.18333 29.67252 36007 ft 467 kts 48°
2026-04-10 12:46 38.20363 29.70413 36010 ft 457 kts 38°
2026-04-10 12:46 38.25326 29.75131 36014 ft 437 kts 19°
2026-04-10 12:47 38.30941 29.77542 36017 ft 419 kts
2026-04-10 12:47 38.36674 29.78936 36015 ft 420 kts
2026-04-10 12:48 38.42415 29.80349 36021 ft 421 kts
2026-04-10 12:48 38.48168 29.81769 36029 ft 421 kts
2026-04-10 12:49 38.53915 29.83179 36041 ft 421 kts
2026-04-10 12:49 38.59659 29.84601 36049 ft 421 kts
2026-04-10 12:50 38.65404 29.86019 36050 ft 420 kts
2026-04-10 12:50 38.71142 29.87435 36047 ft 420 kts
2026-04-10 12:51 38.76877 29.88861 36047 ft 420 kts
2026-04-10 12:51 38.82611 29.90292 36047 ft 420 kts
2026-04-10 12:52 38.88345 29.91724 36045 ft 420 kts
2026-04-10 12:52 38.94080 29.93145 36043 ft 420 kts
2026-04-10 12:53 38.98850 29.94334 36045 ft 420 kts
2026-04-10 12:53 39.04595 29.95769 36047 ft 421 kts
2026-04-10 12:54 39.10344 29.97029 36050 ft 413 kts 355°
2026-04-10 12:54 39.15914 29.96326 36051 ft 396 kts 338°
2026-04-10 12:55 39.20969 29.93752 36048 ft 390 kts 330°
2026-04-10 12:55 39.25945 29.90943 36047 ft 390 kts 330°
2026-04-10 12:56 39.30922 29.88134 36050 ft 391 kts 330°
2026-04-10 12:56 39.35896 29.85302 36050 ft 391 kts 330°
2026-04-10 12:57 39.40879 29.82480 36054 ft 391 kts 331°
2026-04-10 12:57 39.45877 29.79683 36056 ft 391 kts 331°
2026-04-10 12:58 39.50881 29.76885 36063 ft 392 kts 331°
2026-04-10 12:58 39.55879 29.74072 36057 ft 392 kts 331°
2026-04-10 12:59 39.60886 29.71246 36063 ft 393 kts 331°
2026-04-10 12:59 39.65896 29.68417 36073 ft 393 kts 331°
2026-04-10 13:00 39.70912 29.65583 36074 ft 393 kts 331°
2026-04-10 13:00 39.75928 29.62745 36078 ft 393 kts 331°
2026-04-10 13:01 39.80946 29.59906 36068 ft 394 kts 331°
2026-04-10 13:01 39.85985 29.57056 36053 ft 396 kts 331°
2026-04-10 13:02 39.91088 29.54311 36059 ft 401 kts 338°
2026-04-10 13:02 39.96611 29.52837 36068 ft 407 kts 343°
2026-04-10 13:03 40.02179 29.51490 36076 ft 408 kts 343°
2026-04-10 13:03 40.07758 29.50136 36077 ft 408 kts 343°
2026-04-10 13:04 40.13282 29.48800 36080 ft 408 kts 343°
2026-04-10 13:04 40.18847 29.47338 36086 ft 404 kts 338°
2026-04-10 13:04 40.21380 29.45950 36082 ft 398 kts 327°
2026-04-10 13:05 40.23710 29.43946 36078 ft 395 kts 322°
2026-04-10 13:05 40.28187 29.39872 36073 ft 395 kts 322°
2026-04-10 13:06 40.33083 29.36615 36073 ft 409 kts 347°
2026-04-10 13:06 40.35960 29.36818 36071 ft 426 kts
2026-04-10 13:06 40.38690 29.38494 36072 ft 446 kts 29°
2026-04-10 13:06 40.41034 29.41236 36071 ft 457 kts 40°
2026-04-10 13:07 40.43066 29.44486 36071 ft 465 kts 47°
2026-04-10 13:07 40.47324 29.50670 36075 ft 445 kts 25°
2026-04-10 13:07 40.50109 29.52182 36077 ft 425 kts
2026-04-10 13:08 40.53000 29.52414 36079 ft 413 kts 351°
2026-04-10 13:08 40.58778 29.52182 36082 ft 417 kts 354°
2026-04-10 13:09 40.67522 29.52798 36096 ft 433 kts 13°
2026-04-10 13:09 40.70203 29.54739 36104 ft 451 kts 34°
2026-04-10 13:09 40.72266 29.57936 36106 ft 468 kts 55°
2026-04-10 13:10 40.73406 29.62000 36108 ft 482 kts 76°
2026-04-10 13:10 40.73534 29.66454 36108 ft 490 kts 92°
2026-04-10 13:10 40.72784 29.75420 36108 ft 494 kts 94°
2026-04-10 13:11 40.72611 29.84421 36114 ft 491 kts 83°
2026-04-10 13:11 40.73210 29.93374 36124 ft 490 kts 80°
2026-04-10 13:12 40.74912 30.01891 36131 ft 474 kts 53°
2026-04-10 13:12 40.78790 30.08795 36129 ft 468 kts 47°
2026-04-10 13:13 40.82822 30.15526 36128 ft 463 kts 38°
2026-04-10 13:13 40.85396 30.17897 36135 ft 445 kts 17°
2026-04-10 13:13 40.88308 30.19084 36131 ft 434 kts
2026-04-10 13:14 40.94260 30.19610 36129 ft 427 kts 354°
2026-04-10 13:14 41.00204 30.19479 36129 ft 429 kts 355°
2026-04-10 13:15 41.06190 30.19705 36134 ft 429 kts 354°
2026-04-10 13:15 41.12021 30.18514 36133 ft 424 kts 344°
2026-04-10 13:16 41.17742 30.16710 36130 ft 420 kts 336°
2026-04-10 13:16 41.22840 30.13039 36131 ft 417 kts 327°
2026-04-10 13:17 41.27801 30.09055 36139 ft 415 kts 319°
2026-04-10 13:17 41.31838 30.03598 36138 ft 414 kts 312°
2026-04-10 13:18 41.35660 29.97862 36140 ft 414 kts 302°
2026-04-10 13:18 41.38163 29.90961 36137 ft 416 kts 287°
2026-04-10 13:19 41.38441 29.87131 36137 ft 422 kts 266°
2026-04-10 13:19 41.37587 29.83381 36135 ft 432 kts 245°
2026-04-10 13:19 41.35694 29.80232 36128 ft 445 kts 224°
2026-04-10 13:19 41.32985 29.78140 36117 ft 459 kts 204°
2026-04-10 13:20 41.29821 29.77320 36108 ft 469 kts 189°
2026-04-10 13:20 41.26570 29.76973 36101 ft 470 kts 189°
2026-04-10 13:20 41.20059 29.76142 36102 ft 466 kts 198°
2026-04-10 13:21 41.13885 29.73683 36111 ft 463 kts 202°
2026-04-10 13:21 41.07730 29.71103 36118 ft 464 kts 203°
2026-04-10 13:22 41.04756 29.69557 36114 ft 454 kts 216°
2026-04-10 13:22 41.02331 29.67000 36117 ft 441 kts 232°
2026-04-10 13:22 40.98956 29.60434 36127 ft 422 kts 248°
2026-04-10 13:23 40.97729 29.57001 36135 ft 402 kts 252°
2026-04-10 13:23 40.96677 29.53668 36134 ft 385 kts 253°
2026-04-10 13:23 40.95683 29.50441 36144 ft 374 kts 253°
2026-04-10 13:23 40.94673 29.47289 36142 ft 371 kts 252°
2026-04-10 13:24 40.92519 29.41092 36139 ft 371 kts 250°
2026-04-10 13:24 40.90253 29.34973 36135 ft 371 kts 250°
2026-04-10 13:25 40.87159 29.29500 36139 ft 394 kts 218°
2026-04-10 13:25 40.84552 29.28202 36143 ft 413 kts 194°
2026-04-10 13:25 40.81678 29.28329 36137 ft 429 kts 170°
2026-04-10 13:26 40.78905 29.29879 36135 ft 440 kts 149°
2026-04-10 13:26 40.76657 29.32627 36132 ft 444 kts 125°
2026-04-10 13:26 40.75317 29.36264 36132 ft 441 kts 101°
2026-04-10 13:26 40.75072 29.40234 36139 ft 432 kts 79°
2026-04-10 13:27 40.75658 29.44080 36132 ft 426 kts 68°
2026-04-10 13:27 40.76482 29.47834 36139 ft 427 kts 68°
2026-04-10 13:27 40.78868 29.54788 36133 ft 405 kts 40°
2026-04-10 13:28 40.82550 29.60360 35716 ft 413 kts 58°
2026-04-10 13:28 40.83452 29.63984 35321 ft 421 kts 75°
2026-04-10 13:28 40.83904 29.67798 34910 ft 420 kts 77°
2026-04-10 13:29 40.84307 29.71607 34529 ft 417 kts 77°
2026-04-10 13:29 40.84702 29.75386 34176 ft 413 kts 77°
2026-04-10 13:29 40.85091 29.79130 33745 ft 410 kts 77°
2026-04-10 13:29 40.85476 29.82845 33335 ft 406 kts 77°
2026-04-10 13:30 40.86131 29.86411 32914 ft 392 kts 60°
2026-04-10 13:30 40.87540 29.89362 32534 ft 371 kts 39°
2026-04-10 13:30 40.89519 29.91371 32143 ft 350 kts 17°
2026-04-10 13:30 40.91772 29.92227 31731 ft 329 kts 357°
2026-04-10 13:31 40.94040 29.91953 30855 ft 338 kts 340°
2026-04-10 13:31 40.96430 29.91000 29894 ft 375 kts 338°
2026-04-10 13:31 40.98987 29.89888 28803 ft 400 kts 338°
2026-04-10 13:31 41.01647 29.88689 27774 ft 405 kts 337°
2026-04-10 13:32 41.04291 29.87452 26861 ft 401 kts 336°
2026-04-10 13:32 41.06894 29.86161 26014 ft 398 kts 336°
2026-04-10 13:32 41.09470 29.84857 25194 ft 395 kts 336°
2026-04-10 13:32 41.12027 29.83540 24385 ft 392 kts 336°
2026-04-10 13:33 41.14524 29.82232 23575 ft 390 kts 336°
2026-04-10 13:33 41.17039 29.80898 22657 ft 388 kts 336°
2026-04-10 13:33 41.19627 29.79911 21849 ft 388 kts 351°
2026-04-10 13:33 41.22310 29.80083 21093 ft 389 kts 10°
2026-04-10 13:34 41.24814 29.81449 20358 ft 392 kts 30°
2026-04-10 13:34 41.26842 29.83859 19638 ft 394 kts 50°
2026-04-10 13:34 41.28192 29.87030 18926 ft 395 kts 65°
2026-04-10 13:34 41.29134 29.90461 18168 ft 396 kts 76°
2026-04-10 13:35 41.29288 29.94097 17460 ft 394 kts 96°
2026-04-10 13:35 41.28532 29.97557 16809 ft 390 kts 117°
2026-04-10 13:35 41.26963 30.00448 16171 ft 383 kts 137°
2026-04-10 13:35 41.24796 30.02417 15539 ft 376 kts 158°
2026-04-10 13:36 41.22304 30.03253 14924 ft 366 kts 179°
2026-04-10 13:36 41.19823 30.02880 14275 ft 353 kts 199°
2026-04-10 13:36 41.17670 30.01473 13082 ft 342 kts 219°
2026-04-10 13:36 41.16038 29.99256 11851 ft 333 kts 238°
2026-04-10 13:37 41.14973 29.96641 11355 ft 309 kts 244°
2026-04-10 13:37 41.14013 29.94225 11053 ft 287 kts 244°
2026-04-10 13:37 41.13078 29.91932 10665 ft 280 kts 243°
2026-04-10 13:37 41.12160 29.89699 10040 ft 273 kts 243°
2026-04-10 13:38 41.11561 29.88236 9527 ft 272 kts 243°
2026-04-10 13:38 41.10660 29.86029 8879 ft 273 kts 243°
2026-04-10 13:38 41.09766 29.83824 8451 ft 271 kts 244°
2026-04-10 13:38 41.08873 29.81624 8085 ft 270 kts 244°
2026-04-10 13:39 41.07998 29.79468 7719 ft 260 kts 244°
2026-04-10 13:39 41.07157 29.77396 7364 ft 250 kts 244°
2026-04-10 13:39 41.06356 29.75425 7087 ft 237 kts 244°
2026-04-10 13:39 41.05561 29.73541 6812 ft 233 kts 241°
2026-04-10 13:40 41.04771 29.71690 6530 ft 228 kts 245°
2026-04-10 13:40 41.04067 29.69821 6244 ft 225 kts 246°
2026-04-10 13:40 41.03391 29.67959 5950 ft 224 kts 246°
2026-04-10 13:40 41.02721 29.66112 5648 ft 219 kts 246°
2026-04-10 13:41 41.02073 29.64330 5373 ft 211 kts 246°
2026-04-10 13:41 41.01447 29.62608 5089 ft 204 kts 247°
2026-04-10 13:41 41.00845 29.60957 4833 ft 194 kts 247°
2026-04-10 13:41 41.00268 29.59374 4535 ft 188 kts 247°
2026-04-10 13:42 40.99708 29.57833 4240 ft 184 kts 247°
2026-04-10 13:42 40.99158 29.56325 3962 ft 181 kts 247°
2026-04-10 13:42 40.98614 29.54832 3673 ft 179 kts 247°
2026-04-10 13:42 40.98073 29.53349 3524 ft 179 kts 246°
2026-04-10 13:43 40.97532 29.51867 3503 ft 179 kts 246°
2026-04-10 13:43 40.96989 29.50381 3516 ft 180 kts 247°
2026-04-10 13:43 40.96449 29.48905 3467 ft 174 kts 246°
2026-04-10 13:43 40.95936 29.47505 3316 ft 162 kts 247°
2026-04-10 13:44 40.95464 29.46216 3074 ft 151 kts 247°
2026-04-10 13:44 40.95017 29.44994 2839 ft 146 kts 247°
2026-04-10 13:44 40.94580 29.43801 2610 ft 143 kts 247°
2026-04-10 13:44 40.94148 29.42619 2378 ft 142 kts 247°
2026-04-10 13:45 40.93718 29.41446 2151 ft 142 kts 247°
2026-04-10 13:45 40.93289 29.40276 1926 ft 141 kts 246°
2026-04-10 13:45 40.92861 29.39113 1706 ft 140 kts 246°
2026-04-10 13:45 40.92436 29.37958 1458 ft 140 kts 247°
2026-04-10 13:46 40.92011 29.36804 1212 ft 140 kts 247°
2026-04-10 13:46 40.91587 29.35650 966 ft 140 kts 246°
2026-04-10 13:46 40.91162 29.34499 733 ft 139 kts 246°
2026-04-10 13:46 40.90737 29.33335 538 ft 142 kts 246°
2026-04-10 13:47 40.90310 29.32160 348 ft 142 kts 246°
2026-04-10 13:47 40.89907 29.31099 320 ft 117 kts 245°
2026-04-10 13:47 40.89663 29.30390 321 ft 37 kts 245°
2026-04-10 13:47 40.89626 29.30138 321 ft 27 kts 272°
2026-04-10 13:48 40.89633 29.29984 321 ft 12 kts 277°
2026-04-10 13:48 40.89666 29.29927 320 ft 8 kts 343°
2026-04-10 13:48 40.89716 29.29967 320 ft 11 kts 60°
2026-04-10 13:48 40.89757 29.30081 321 ft 16 kts 64°
2026-04-10 13:49 40.89814 29.30233 321 ft 20 kts 64°
2026-04-10 13:49 40.89878 29.30409 320 ft 22 kts 64°
2026-04-10 13:49 40.89945 29.30592 321 ft 24 kts 64°
2026-04-10 13:49 40.90014 29.30780 321 ft 22 kts 64°
2026-04-10 13:50 40.90065 29.30907 321 ft 11 kts 47°
2026-04-10 13:50 40.90137 29.30920 321 ft 10 kts 341°
2026-04-10 13:50 40.90203 29.30879 321 ft 11 kts 333°
2026-04-10 13:50 40.90275 29.30827 320 ft 11 kts 334°
2026-04-10 13:51 40.90292 29.30816 321 ft 0 kts 334°